Morristown, NJ

3:28 AM EDT on June 24, 2017 (GMT -0400)
Morristown Municipal

Weather History for KMMU - February, 2013

Change the Weather History Date:

Friday, February 8, 2013

  Actual Average Record
Temperature  
Mean Temperature 30 °F -  
Max Temperature 33 °F 36 °F 62 °F (2017)
Min Temperature 28 °F 16 °F -5 °F (1963)
Degree Days  
Heating Degree Days 34    
Moisture  
Dew Point 27 °F    
Average Humidity 88    
Maximum Humidity 100    
Minimum Humidity 69    
Precipitation  
Precipitation 0.00 in - - ()
Sea Level Pressure  
Sea Level Pressure 30.01 in    
Wind  
Wind Speed 8 mph (NNE)    
Max Wind Speed 15 mph    
Max Gust Speed 25 mph    
Visibility 5 miles    
Events Snow    
Averages and records for this station are not official NWS values.
T = Trace of Precipitation, MM = Missing Value Source: NWS Daily Summary

Daily Weather History Graph

Daily Weather History Graph

Search for Another Location

Airport or City:

Trip Planner

Search our weather history database for the weather conditions in past years. The results will help you decide how hot, cold, wet, or windy it might be!

Date:

Astronomy

Feb. 08, 2013 Rise Set
Actual Time 7:00 AM EST 5:24 PM EST
Civil Twilight 6:31 AM EST 5:52 PM EST
Nautical Twilight 5:59 AM EST 6:25 PM EST
Astronomical Twilight 5:27 AM EST 6:57 PM EST
Moon 5:27 AM EST (2/8) 3:54 PM EST (2/8)
Length of Visible Light 11h 21m
Length of Day
10h 24m
Waning Crescent, 3% of the Moon is Illuminated
Feb 8
Waning Crescent
Feb 10
New
Feb 17
First Quarter
Feb 25
Full
Mar 4
Last Quarter

Hourly Weather History & Observations

Time (EST) Temp. Windchill Dew Point Humidity Pressure Visibility Wind Dir Wind Speed Gust Speed Precip Events Conditions
12:15 AM 28.4 °F 22.2 °F 21.2 °F 74% 30.32 in 10.0 mi NNE 5.8 mph - N/A   Overcast
12:35 AM 30.2 °F 23.4 °F 21.2 °F 69% 30.31 in 10.0 mi NE 6.9 mph - N/A   Overcast
12:55 AM 30.2 °F 25.4 °F 23.0 °F 75% 30.30 in 10.0 mi NNE 4.6 mph - N/A   Overcast
1:15 AM 30.2 °F 24.3 °F 23.0 °F 75% 30.29 in 10.0 mi NNE 5.8 mph - N/A   Overcast
1:35 AM 30.2 °F 24.3 °F 23.0 °F 75% 30.28 in 10.0 mi NNE 5.8 mph - N/A   Overcast
1:55 AM 30.2 °F 25.4 °F 23.0 °F 75% 30.27 in 10.0 mi NNE 4.6 mph - N/A   Overcast
2:15 AM 30.2 °F 25.4 °F 23.0 °F 75% 30.26 in 10.0 mi NNE 4.6 mph - N/A   Overcast
2:35 AM 30.2 °F 25.4 °F 24.8 °F 80% 30.25 in 10.0 mi NNE 4.6 mph - N/A   Overcast
2:55 AM 32.0 °F 26.4 °F 26.6 °F 80% 30.24 in 10.0 mi ENE 5.8 mph - N/A   Overcast
3:15 AM 32.0 °F 26.4 °F 26.6 °F 80% 30.23 in 10.0 mi NE 5.8 mph - N/A   Overcast
3:35 AM 32.0 °F 26.4 °F 26.6 °F 80% 30.22 in 10.0 mi NE 5.8 mph - N/A   Overcast
3:55 AM 32.0 °F 25.6 °F 26.6 °F 80% 30.21 in 10.0 mi NE 6.9 mph - N/A   Overcast
4:15 AM 32.0 °F 23.6 °F 26.6 °F 80% 30.20 in 10.0 mi NE 10.4 mph - N/A   Overcast
4:35 AM 32.0 °F 25.6 °F 26.6 °F 80% 30.21 in 10.0 mi NE 6.9 mph - N/A   Overcast
4:55 AM 32.0 °F 25.6 °F 26.6 °F 80% 30.20 in 7.0 mi NE 6.9 mph - N/A Snow Light Snow
5:15 AM 30.2 °F 24.3 °F 28.4 °F 93% 30.19 in 7.0 mi NE 5.8 mph - N/A   Overcast
5:35 AM 32.0 °F 26.4 °F 28.4 °F 87% 30.17 in 10.0 mi NE 5.8 mph - N/A   Overcast
6:45 AM 32.0 °F 24.2 °F 28.4 °F 87% 30.14 in 3.0 mi ENE 9.2 mph - N/A   Overcast
7:05 AM 32.0 °F 24.8 °F 28.4 °F 87% 30.13 in 2.0 mi ENE 8.1 mph - N/A   Overcast
7:45 AM 30.2 °F 22.6 °F 28.4 °F 93% 30.12 in 1.0 mi SE 8.1 mph - N/A Snow Snow
8:45 AM 30.2 °F 22.6 °F 28.4 °F 93% 30.09 in 1.0 mi NE 8.1 mph - N/A Snow Snow
9:45 AM 30.2 °F 21.3 °F 30.2 °F 100% 30.03 in 1.0 mi NE 10.4 mph - N/A Snow Snow
10:45 AM 33.8 °F 25.8 °F 32.0 °F 93% 30.00 in 1.5 mi ENE 10.4 mph 20.7 mph N/A Snow Snow
11:45 AM 33.8 °F 24.8 °F 32.0 °F 93% 29.95 in 2.2 mi ENE 12.7 mph 19.6 mph N/A Snow Snow
12:45 PM 32.0 °F 22.1 °F 30.2 °F 93% 29.89 in 2.2 mi NE 13.8 mph 21.9 mph N/A Snow Snow
1:45 PM 32.0 °F 23.6 °F 30.2 °F 93% 29.83 in 1.0 mi NE 10.4 mph 25.3 mph N/A Snow Snow
2:45 PM 32.0 °F 23.6 °F 30.2 °F 93% 29.78 in 1.0 mi NE 10.4 mph 21.9 mph N/A Snow Snow
3:45 PM 32.0 °F 24.2 °F 30.2 °F 93% 29.75 in 1.0 mi NE 9.2 mph 19.6 mph N/A Snow Snow
4:45 PM 32.0 °F 22.5 °F 30.2 °F 93% 29.72 in 0.5 mi NNE 12.7 mph 21.9 mph N/A Snow Snow
5:45 PM 32.0 °F 22.5 °F 30.2 °F 93% 29.70 in 1.0 mi NNE 12.7 mph 19.6 mph N/A Snow Snow
6:45 PM 32.0 °F 22.5 °F 28.4 °F 87% 29.68 in 3.0 mi NNE 12.7 mph 21.9 mph N/A Snow Light Snow
7:45 PM 32.0 °F 22.5 °F 26.6 °F 80% 29.68 in 3.0 mi NE 12.7 mph 24.2 mph N/A   Overcast
8:45 PM 32.0 °F 21.6 °F 28.4 °F 87% 29.68 in 3.0 mi North 15.0 mph 21.9 mph N/A   Overcast
9:45 PM 30.2 °F 22.6 °F 28.4 °F 93% 29.72 in 1.0 mi NNW 8.1 mph 18.4 mph N/A Snow Snow
9:55 PM 28.4 °F 19.1 °F 28.4 °F 100% 29.72 in 1.0 mi NNW 10.4 mph - N/A Snow Snow
10:15 PM 28.4 °F 19.1 °F 28.4 °F 100% 29.73 in 0.8 mi NNW 10.4 mph 16.1 mph N/A Snow Snow
10:35 PM 28.4 °F 20.4 °F 28.4 °F 100% 29.74 in 0.8 mi NNW 8.1 mph 17.3 mph N/A Snow Snow
10:55 PM 28.4 °F 21.2 °F 28.4 °F 100% 29.74 in 0.8 mi North 6.9 mph - N/A Snow Snow
11:15 PM 28.4 °F 19.1 °F 28.4 °F 100% 29.75 in 0.8 mi North 10.4 mph 16.1 mph N/A Snow Snow
11:35 PM 28.4 °F 18.0 °F 28.4 °F 100% 29.77 in 0.8 mi North 12.7 mph 17.3 mph N/A Snow Snow
11:55 PM 28.4 °F 21.2 °F 28.4 °F 100% 29.77 in 0.5 mi North 6.9 mph - N/A Snow Heavy Snow